Preview of NWS' New Version of Forecast
This preview is not operational and should not be used for support decisions.

Regional Weather Roundup (RWR)

Issued by National Weather Service (NWS)

                            
000
ASUS45 KBOI 230310
RWRID 

IDAHO REGIONAL WEATHER ROUNDUP
NATIONAL WEATHER SERVICE BOISE ID
900 PM MDT SUN SEP 22 2019

NOTE: "FAIR" INDICATES FEW OR NO CLOUDS BELOW 12000 FEET
WITH NO SIGNIFICANT WEATHER AND/OR OBSTRUCTIONS TO VISIBILITY

IDZ012-014-230400-
SOUTHWEST IDAHO

  
CITY           SKY/WX    TMP DP  RH WIND       PRES   REMARKS
BOISE          MOCLDY    68  38  33 MISG      29.89R                  
CALDWELL       MOCLDY    62  52  69 W17       29.89R                  
MOUNTAIN HOME  PTCLDY    61  39  45 SE8       29.88R                  
$$

IDZ016-017-230400-
SOUTHCENTRAL IDAHO

  
CITY           SKY/WX    TMP DP  RH WIND       PRES   REMARKS
BURLEY         CLEAR     61  34  36 S6        29.96R                  
JEROME         PTCLDY    62  38  40 E12       29.94R                  
TWIN FALLS     PTCLDY    57  38  48 S9        29.94S                  
$$

IDZ019>023-230400-
SOUTHEAST IDAHO

  
CITY           SKY/WX    TMP DP  RH WIND       PRES   REMARKS
IDAHO FALLS    CLEAR     59  40  49 S6        30.07R                  
POCATELLO      CLEAR     57  35  43 E6        30.04R                  
REXBURG        CLEAR     57  40  52 E3        30.07R                  
$$

IDZ006-010-011-018-031-032-230400-
CENTRAL IDAHO MOUNTAINS

  
CITY           SKY/WX    TMP DP  RH WIND       PRES   REMARKS
MCCALL         CLOUDY    56  40  55 NE3       29.96R                  
HAILEY         PTCLDY    48  43  81 NW7       30.06R                  
STANLEY          N/A     55  34  45 S7        30.07R                  
SALMON         CLOUDY    58  49  72 SW3       29.91R                  
CHALLIS        PTCLDY    63  34  33 S13       29.97R                  
$$

IDZ002-004-006-007-026-230400-
NORTHERN IDAHO

  
CITY           SKY/WX    TMP DP  RH WIND       PRES   REMARKS
LEWISTON       CLOUDY    64  51  62 W7        29.91R                  
LOWELL           N/A     61  55  81 N3        29.85R                  
COEUR D'ALENE  RAIN      59  54  83 SE9       29.90R                  
MULLAN PASS    CLOUDY    50  42  74 NW3       29.98R                  
$$